Weather History for Cozumel, Mexico

Change the Weather History Date:

Friday, January 27, 2012

  Actual Average Record
Temperature  
Mean Temperature 72 °F -  
Max Temperature 77 °F 81 °F 86 °F (2002)
Min Temperature 66 °F 68 °F 57 °F (2014)
Cooling Degree Days 6    
Growing Degree Days 22 (Base 50)    
Moisture  
Dew Point 66 °F    
Average Humidity 85    
Maximum Humidity 100    
Minimum Humidity 73    
Precipitation  
Precipitation 0.05 in - - ()
Sea Level Pressure  
Sea Level Pressure 30.01 in    
Wind  
Wind Speed 1 mph ()    
Max Wind Speed 7 mph    
Max Gust Speed -    
Visibility 7.1 miles    
Events Rain    
Averages and records for this station are not official NWS values.
T = Trace of Precipitation, MM = Missing Value Source: Averaged Metar Reports

Daily Weather History Graph

Daily Weather History Graph

Search for Another Location

Airport:

Trip Planner

Search our weather history database for the weather conditions in past years. The results will help you decide how hot, cold, wet, or windy it might be!

Date:

Astronomy

Jan. 27, 2012 Rise Set
Actual Time 6:25 AM CST 5:35 PM CST
Civil Twilight 6:02 AM CST 5:58 PM CST
Nautical Twilight 5:35 AM CST 6:25 PM CST
Astronomical Twilight 5:08 AM CST 6:52 PM CST
Moon 9:02 AM CST (1/27) 9:38 PM CST (1/27)
Length of Visible Light 11h 56m
Length of Day
11h 10m
Waxing Crescent, 20% of the Moon is Illuminated
Jan 27
Waxing Crescent
Jan 30
First Quarter
Feb 7
Full
Feb 14
Last Quarter
Feb 21
New

Hourly Weather History & Observations

Time (CST) Temp. Dew Point Humidity Pressure Visibility Wind Dir Wind Speed Gust Speed Precip Events Conditions
12:43 AM 71.6 °F 66.2 °F 83% 29.98 in 7.0 mi Calm Calm - N/A   Scattered Clouds
1:40 AM 68.0 °F 64.4 °F 88% 29.97 in 7.0 mi Calm Calm - N/A   Scattered Clouds
2:52 AM 66.2 °F 62.6 °F 88% 29.99 in 7.0 mi Calm Calm - N/A   Scattered Clouds
3:50 AM 68.0 °F 64.4 °F 88% 29.95 in 7.0 mi Calm Calm - N/A   Scattered Clouds
4:40 AM 68.0 °F 64.4 °F 88% 29.96 in 7.0 mi SE 4.6 mph - N/A   Mostly Cloudy
5:50 AM 69.8 °F 66.2 °F 88% 29.95 in 7.0 mi Calm Calm - N/A   Mostly Cloudy
6:44 AM 68.0 °F 64.4 °F 88% 30.00 in 7.0 mi Calm Calm - N/A   Mostly Cloudy
7:55 AM 71.6 °F 68.0 °F 88% 30.02 in 7.0 mi Calm Calm - N/A   Mostly Cloudy
8:40 AM 75.2 °F 68.0 °F 78% 30.07 in 7.0 mi Calm Calm - N/A   Mostly Cloudy
9:40 AM 77.0 °F 68.0 °F 74% 30.05 in 8.0 mi Calm Calm - N/A   Mostly Cloudy
10:42 AM 77.0 °F 68.0 °F 74% 30.05 in 8.0 mi SE 6.9 mph - N/A   Mostly Cloudy
11:45 AM 69.8 °F 64.4 °F 83% 29.99 in 7.0 mi NW 5.8 mph - N/A Rain Light Rain
12:05 PM 71.6 °F 66.2 °F 83% 30.03 in 7.0 mi West 5.8 mph - N/A   Mostly Cloudy
12:50 PM 71.6 °F 68.0 °F 88% 30.00 in 7.0 mi Calm Calm - N/A Rain Light Rain
1:41 PM 73.4 °F 69.8 °F 88% 29.97 in 7.0 mi Calm Calm - N/A   Mostly Cloudy
2:50 PM 68.0 °F 68.0 °F 100% 29.99 in 7.0 mi Calm Calm - N/A   Mostly Cloudy
3:41 PM 75.2 °F 66.2 °F 73% 29.97 in 7.0 mi SE 5.8 mph - N/A   Mostly Cloudy
4:43 PM 73.4 °F 66.2 °F 78% 29.98 in 7.0 mi Calm Calm - N/A   Mostly Cloudy
5:44 PM 71.6 °F 66.2 °F 83% 29.99 in 7.0 mi Calm Calm - N/A   Overcast
6:42 PM 71.6 °F 66.2 °F 83% 30.03 in 7.0 mi Calm Calm - N/A   Mostly Cloudy
7:43 PM 69.8 °F 66.2 °F 88% 30.04 in 7.0 mi North 5.8 mph - N/A   Mostly Cloudy
8:44 PM 69.8 °F 66.2 °F 88% 30.06 in 7.0 mi Calm Calm - N/A   Scattered Clouds
9:42 PM 68.0 °F 64.4 °F 88% 30.06 in 7.0 mi Calm Calm - N/A   Scattered Clouds
10:44 PM 69.8 °F 66.2 °F 88% 30.07 in 7.0 mi Calm Calm - N/A   Scattered Clouds
11:46 PM 68.0 °F 64.4 °F 88% 30.03 in 7.0 mi Calm Calm - N/A   Partly Cloudy